Back to catalog

THORAD AGENA D DEB *

AliveSSO
NORAD 6159·DEBRIS·🇺🇸 United States

Launched Apr 8, 1970 from Vandenberg Space Force Base

Loading…

Next Passes (next 24 hours)

TLE

FreshSource: Space-Track

Epoch: Sep 13, 2026, 08:54 UTC

1 06159U 70025MY  26256.37116944  .00000562  00000-0  22818-2 0  9997
2 06159 101.1871  41.9434 0054581  25.2434   2.7185 12.90968443667143

Track THORAD AGENA D DEB * in real time with AllMySat

Download on the App Store